Year,Month,Day,Hour,Minute,Value (Times are PST for temperature in C)
2009,07,02,00,00,13.70
2009,07,02,00,01,13.70
2009,07,02,00,02,13.70
2009,07,02,00,03,13.70
2009,07,02,00,04,13.70
2009,07,02,00,05,13.70
2009,07,02,00,06,13.70
2009,07,02,00,07,13.60
2009,07,02,00,08,13.60
2009,07,02,00,09,13.60
2009,07,02,00,10,13.60
2009,07,02,00,11,13.60
2009,07,02,00,12,13.60
2009,07,02,00,13,13.50
2009,07,02,00,14,13.50
2009,07,02,00,15,13.50
2009,07,02,00,16,13.50
2009,07,02,00,17,13.50
2009,07,02,00,18,13.40
2009,07,02,00,19,13.40
2009,07,02,00,20,13.40
2009,07,02,00,21,13.40
2009,07,02,00,22,13.30
2009,07,02,00,23,13.30
2009,07,02,00,24,13.30
2009,07,02,00,25,13.30
2009,07,02,00,26,13.20
2009,07,02,00,27,13.20
2009,07,02,00,28,13.20
2009,07,02,00,29,13.10
2009,07,02,00,30,13.10
2009,07,02,00,31,13.10
2009,07,02,00,32,13.10
2009,07,02,00,33,13.00
2009,07,02,00,34,13.00
2009,07,02,00,35,13.00
2009,07,02,00,36,13.00
2009,07,02,00,37,13.00
2009,07,02,00,38,12.90
2009,07,02,00,39,12.90
2009,07,02,00,40,12.80
2009,07,02,00,41,12.80
2009,07,02,00,42,12.80
2009,07,02,00,43,12.80
2009,07,02,00,44,12.80
2009,07,02,00,45,12.80
2009,07,02,00,46,12.80
2009,07,02,00,47,12.80
2009,07,02,00,48,12.80
2009,07,02,00,49,12.80
2009,07,02,00,50,12.70
2009,07,02,00,51,12.70
2009,07,02,00,52,12.70
2009,07,02,00,53,12.70
2009,07,02,00,54,12.60
2009,07,02,00,55,12.60
2009,07,02,00,56,12.60
2009,07,02,00,57,12.60
2009,07,02,00,58,12.60
2009,07,02,00,59,12.50
2009,07,02,01,00,12.50
2009,07,02,01,01,12.50
2009,07,02,01,02,12.50
2009,07,02,01,03,12.50
2009,07,02,01,04,12.40
2009,07,02,01,05,12.40
2009,07,02,01,06,12.40
2009,07,02,01,07,12.40
2009,07,02,01,08,12.40
2009,07,02,01,09,12.40
2009,07,02,01,10,12.30
2009,07,02,01,11,12.30
2009,07,02,01,12,12.30
2009,07,02,01,13,12.30
2009,07,02,01,14,12.30
2009,07,02,01,15,12.30
2009,07,02,01,16,12.30
2009,07,02,01,17,12.30
2009,07,02,01,18,12.30
2009,07,02,01,19,12.20
2009,07,02,01,20,12.20
2009,07,02,01,21,12.20
2009,07,02,01,22,12.20
2009,07,02,01,23,12.10
2009,07,02,01,24,12.10
2009,07,02,01,25,12.10
2009,07,02,01,26,12.10
2009,07,02,01,27,12.00
2009,07,02,01,28,12.00
2009,07,02,01,29,12.00
2009,07,02,01,30,12.00
2009,07,02,01,31,12.00
2009,07,02,01,32,11.90
2009,07,02,01,33,11.90
2009,07,02,01,34,11.90
2009,07,02,01,35,11.90
2009,07,02,01,36,11.90
2009,07,02,01,37,11.90
2009,07,02,01,38,11.90
2009,07,02,01,39,11.90
2009,07,02,01,40,11.80
2009,07,02,01,41,11.80
2009,07,02,01,42,11.80
2009,07,02,01,43,11.80
2009,07,02,01,44,11.80
2009,07,02,01,45,11.80
2009,07,02,01,46,11.80
2009,07,02,01,47,11.80
2009,07,02,01,48,11.80
2009,07,02,01,49,11.80
2009,07,02,01,50,11.80
2009,07,02,01,51,11.80
2009,07,02,01,52,11.80
2009,07,02,01,53,11.80
2009,07,02,01,54,11.80
2009,07,02,01,55,11.80
2009,07,02,01,56,11.80
2009,07,02,01,57,11.80
2009,07,02,01,58,11.80
2009,07,02,01,59,11.70
2009,07,02,02,00,11.70
2009,07,02,02,01,11.70
2009,07,02,02,02,11.70
2009,07,02,02,03,11.70
2009,07,02,02,04,11.70
2009,07,02,02,05,11.70
2009,07,02,02,06,11.70
2009,07,02,02,07,11.60
2009,07,02,02,08,11.60
2009,07,02,02,09,11.60
2009,07,02,02,10,11.60
2009,07,02,02,11,11.60
2009,07,02,02,12,11.60
2009,07,02,02,13,11.60
2009,07,02,02,14,11.40
2009,07,02,02,15,11.40
2009,07,02,02,16,11.40
2009,07,02,02,17,11.40
2009,07,02,02,18,11.40
2009,07,02,02,19,11.40
2009,07,02,02,20,11.40
2009,07,02,02,21,11.40
2009,07,02,02,22,11.40
2009,07,02,02,23,11.40
2009,07,02,02,24,11.40
2009,07,02,02,25,11.40
2009,07,02,02,26,11.30
2009,07,02,02,27,11.30
2009,07,02,02,28,11.30
2009,07,02,02,29,11.30
2009,07,02,02,30,11.30
2009,07,02,02,31,11.30
2009,07,02,02,32,11.30
2009,07,02,02,33,11.30
2009,07,02,02,34,11.30
2009,07,02,02,35,11.30
2009,07,02,02,36,11.20
2009,07,02,02,37,11.20
2009,07,02,02,38,11.20
2009,07,02,02,39,11.20
2009,07,02,02,40,11.20
2009,07,02,02,41,11.20
2009,07,02,02,42,11.20
2009,07,02,02,43,11.20
2009,07,02,02,44,11.20
2009,07,02,02,45,11.20
2009,07,02,02,46,11.20
2009,07,02,02,47,11.20
2009,07,02,02,48,11.20
2009,07,02,02,49,11.20
2009,07,02,02,50,11.10
2009,07,02,02,51,11.10
2009,07,02,02,52,11.10
2009,07,02,02,53,11.10
2009,07,02,02,54,11.10
2009,07,02,02,55,11.10
2009,07,02,02,56,10.90
2009,07,02,02,57,10.90
2009,07,02,02,58,10.90
2009,07,02,02,59,10.90
2009,07,02,03,00,10.90
2009,07,02,03,01,10.90
2009,07,02,03,02,10.80
2009,07,02,03,03,10.80
2009,07,02,03,04,10.80
2009,07,02,03,05,10.80
2009,07,02,03,06,10.70
2009,07,02,03,07,10.70
2009,07,02,03,08,10.70
2009,07,02,03,09,10.70
2009,07,02,03,10,10.60
2009,07,02,03,11,10.60
2009,07,02,03,12,10.60
2009,07,02,03,13,10.60
2009,07,02,03,14,10.60
2009,07,02,03,15,10.60
2009,07,02,03,16,10.60
2009,07,02,03,17,10.60
2009,07,02,03,18,10.60
2009,07,02,03,19,10.60
2009,07,02,03,20,10.40
2009,07,02,03,21,10.40
2009,07,02,03,22,10.40
2009,07,02,03,23,10.40
2009,07,02,03,24,10.40
2009,07,02,03,25,10.40
2009,07,02,03,26,10.40
2009,07,02,03,27,10.40
2009,07,02,03,28,10.40
2009,07,02,03,29,10.40
2009,07,02,03,30,10.40
2009,07,02,03,31,10.40
2009,07,02,03,32,10.40
2009,07,02,03,33,10.40
2009,07,02,03,34,10.40
2009,07,02,03,35,10.40
2009,07,02,03,36,10.40
2009,07,02,03,37,10.40
2009,07,02,03,38,10.40
2009,07,02,03,39,10.40
2009,07,02,03,40,10.40
2009,07,02,03,41,10.40
2009,07,02,03,42,10.40
2009,07,02,03,43,10.40
2009,07,02,03,44,10.40
2009,07,02,03,45,10.40
2009,07,02,03,46,10.40
2009,07,02,03,47,10.30
2009,07,02,03,48,10.30
2009,07,02,03,49,10.30
2009,07,02,03,50,10.30
2009,07,02,03,51,10.30
2009,07,02,03,52,10.30
2009,07,02,03,53,10.30
2009,07,02,03,54,10.30
2009,07,02,03,55,10.30
2009,07,02,03,56,10.30
2009,07,02,03,57,10.20
2009,07,02,03,58,10.20
2009,07,02,03,59,10.20
2009,07,02,04,00,10.20
2009,07,02,04,01,10.20
2009,07,02,04,02,10.20
2009,07,02,04,03,10.20
2009,07,02,04,04,10.20
2009,07,02,04,05,10.20
2009,07,02,04,06,10.20
2009,07,02,04,07,10.10
2009,07,02,04,08,10.10
2009,07,02,04,09,10.10
2009,07,02,04,10,10.10
2009,07,02,04,11,10.10
2009,07,02,04,12,10.00
2009,07,02,04,13,9.90
2009,07,02,04,14,9.90
2009,07,02,04,15,9.90
2009,07,02,04,16,9.90
2009,07,02,04,17,9.90
2009,07,02,04,18,9.90
2009,07,02,04,19,9.90
2009,07,02,04,20,9.90
2009,07,02,04,21,9.90
2009,07,02,04,22,9.90
2009,07,02,04,23,9.90
2009,07,02,04,24,9.90
2009,07,02,04,25,9.90
2009,07,02,04,26,9.90
2009,07,02,04,27,9.90
2009,07,02,04,28,9.90
2009,07,02,04,29,9.90
2009,07,02,04,30,9.90
2009,07,02,04,31,9.90
2009,07,02,04,32,9.90
2009,07,02,04,33,9.90
2009,07,02,04,34,9.90
2009,07,02,04,35,9.90
2009,07,02,04,36,9.90
2009,07,02,04,37,9.90
2009,07,02,04,38,9.90
2009,07,02,04,39,9.90
2009,07,02,04,40,9.90
2009,07,02,04,41,9.90
2009,07,02,04,42,9.90
2009,07,02,04,43,9.80
2009,07,02,04,44,9.80
2009,07,02,04,45,9.80
2009,07,02,04,46,9.80
2009,07,02,04,47,9.80
2009,07,02,04,48,9.80
2009,07,02,04,49,9.80
2009,07,02,04,50,9.80
2009,07,02,04,51,9.80
2009,07,02,04,52,9.80
2009,07,02,04,53,9.80
2009,07,02,04,54,9.80
2009,07,02,04,55,9.70
2009,07,02,04,56,9.70
2009,07,02,04,57,9.70
2009,07,02,04,58,9.70
2009,07,02,04,59,9.70
2009,07,02,05,00,9.70
2009,07,02,05,01,9.70
2009,07,02,05,02,9.70
2009,07,02,05,03,9.70
2009,07,02,05,04,9.70
2009,07,02,05,05,9.70
2009,07,02,05,06,9.70
2009,07,02,05,07,9.60
2009,07,02,05,08,9.60
2009,07,02,05,09,9.60
2009,07,02,05,10,9.60
2009,07,02,05,11,9.50
2009,07,02,05,12,9.50
2009,07,02,05,13,9.50
2009,07,02,05,14,9.50
2009,07,02,05,15,9.50
2009,07,02,05,16,9.40
2009,07,02,05,17,9.40
2009,07,02,05,18,9.40
2009,07,02,05,19,9.40
2009,07,02,05,20,9.40
2009,07,02,05,21,9.30
2009,07,02,05,22,9.30
2009,07,02,05,23,9.30
2009,07,02,05,24,9.20
2009,07,02,05,25,9.20
2009,07,02,05,26,9.20
2009,07,02,05,27,9.20
2009,07,02,05,28,9.20
2009,07,02,05,29,9.20
2009,07,02,05,30,9.20
2009,07,02,05,31,9.20
2009,07,02,05,32,9.20
2009,07,02,05,33,9.20
2009,07,02,05,34,9.20
2009,07,02,05,35,9.20
2009,07,02,05,36,9.20
2009,07,02,05,37,9.20
2009,07,02,05,38,9.20
2009,07,02,05,39,9.20
2009,07,02,05,40,9.20
2009,07,02,05,41,9.20
2009,07,02,05,42,9.20
2009,07,02,05,43,9.20
2009,07,02,05,44,9.20
2009,07,02,05,45,9.20
2009,07,02,05,46,9.20
2009,07,02,05,47,9.30
2009,07,02,05,48,9.30
2009,07,02,05,49,9.30
2009,07,02,05,50,9.30
2009,07,02,05,51,9.30
2009,07,02,05,52,9.30
2009,07,02,05,53,9.30
2009,07,02,05,54,9.30
2009,07,02,05,55,9.30
2009,07,02,05,56,9.30
2009,07,02,05,57,9.30
2009,07,02,05,58,9.40
2009,07,02,05,59,9.40
2009,07,02,06,00,9.40
2009,07,02,06,01,9.40
2009,07,02,06,02,9.50
2009,07,02,06,03,9.50
2009,07,02,06,04,9.50
2009,07,02,06,05,9.60
2009,07,02,06,06,9.60
2009,07,02,06,07,9.70
2009,07,02,06,08,9.70
2009,07,02,06,09,9.80
2009,07,02,06,10,9.90
2009,07,02,06,11,9.90
2009,07,02,06,12,10.00
2009,07,02,06,13,10.10
2009,07,02,06,14,10.20
2009,07,02,06,15,10.20
2009,07,02,06,16,10.30
2009,07,02,06,17,10.40
2009,07,02,06,18,10.50
2009,07,02,06,19,10.60
2009,07,02,06,20,10.60
2009,07,02,06,21,10.70
2009,07,02,06,22,10.80
2009,07,02,06,23,10.80
2009,07,02,06,24,10.90
2009,07,02,06,25,11.00
2009,07,02,06,26,11.10
2009,07,02,06,27,11.20
2009,07,02,06,28,11.20
2009,07,02,06,29,11.30
2009,07,02,06,30,11.40
2009,07,02,06,31,11.40
2009,07,02,06,32,11.50
2009,07,02,06,33,11.60
2009,07,02,06,34,11.60
2009,07,02,06,35,11.70
2009,07,02,06,36,11.80
2009,07,02,06,37,11.80
2009,07,02,06,38,11.80
2009,07,02,06,39,11.80
2009,07,02,06,40,11.90
2009,07,02,06,41,11.90
2009,07,02,06,42,12.00
2009,07,02,06,43,12.00
2009,07,02,06,44,12.10
2009,07,02,06,45,12.10
2009,07,02,06,46,12.20
2009,07,02,06,47,12.30
2009,07,02,06,48,12.40
2009,07,02,06,49,12.50
2009,07,02,06,50,12.50
2009,07,02,06,51,12.60
2009,07,02,06,52,12.70
2009,07,02,06,53,12.80
2009,07,02,06,54,12.80
2009,07,02,06,55,12.90
2009,07,02,06,56,13.00
2009,07,02,06,57,13.10
2009,07,02,06,58,13.10
2009,07,02,06,59,13.20
2009,07,02,07,00,13.20
2009,07,02,07,01,13.30
2009,07,02,07,02,13.30
2009,07,02,07,03,13.30
2009,07,02,07,04,13.40
2009,07,02,07,05,13.50
2009,07,02,07,06,13.50
2009,07,02,07,07,13.50
2009,07,02,07,08,13.60
2009,07,02,07,09,13.60
2009,07,02,07,10,13.70
2009,07,02,07,11,13.70
2009,07,02,07,12,13.80
2009,07,02,07,13,13.90
2009,07,02,07,14,14.00
2009,07,02,07,15,14.00
2009,07,02,07,16,14.10
2009,07,02,07,17,14.20
2009,07,02,07,18,14.30
2009,07,02,07,19,14.50
2009,07,02,07,20,14.60
2009,07,02,07,21,14.70
2009,07,02,07,22,14.80
2009,07,02,07,23,14.90
2009,07,02,07,24,15.00
2009,07,02,07,25,15.10
2009,07,02,07,26,15.30
2009,07,02,07,27,15.40
2009,07,02,07,28,15.50
2009,07,02,07,29,15.60
2009,07,02,07,30,15.70
2009,07,02,07,31,15.70
2009,07,02,07,32,15.80
2009,07,02,07,33,15.80
2009,07,02,07,34,15.90
2009,07,02,07,35,16.10
2009,07,02,07,36,16.10
2009,07,02,07,37,16.20
2009,07,02,07,38,16.30
2009,07,02,07,39,16.40
2009,07,02,07,40,16.50
2009,07,02,07,41,16.60
2009,07,02,07,42,16.70
2009,07,02,07,43,16.80
2009,07,02,07,44,16.90
2009,07,02,07,45,16.90
2009,07,02,07,46,17.00
2009,07,02,07,47,17.00
2009,07,02,07,48,17.00
2009,07,02,07,49,17.00
2009,07,02,07,50,17.10
2009,07,02,07,51,17.10
2009,07,02,07,52,17.20
2009,07,02,07,53,17.20
2009,07,02,07,54,17.30
2009,07,02,07,55,17.30
2009,07,02,07,56,17.30
2009,07,02,07,57,17.30
2009,07,02,07,58,17.40
2009,07,02,07,59,17.40
2009,07,02,08,00,17.40
2009,07,02,08,01,17.50
2009,07,02,08,02,17.50
2009,07,02,08,03,17.60
2009,07,02,08,04,17.60
2009,07,02,08,05,17.60
2009,07,02,08,06,17.50
2009,07,02,08,07,17.50
2009,07,02,08,08,17.50
2009,07,02,08,09,17.60
2009,07,02,08,10,17.70
2009,07,02,08,11,17.80
2009,07,02,08,12,17.80
2009,07,02,08,13,17.90
2009,07,02,08,14,17.90
2009,07,02,08,15,17.90
2009,07,02,08,16,17.90
2009,07,02,08,17,17.90
2009,07,02,08,18,17.90
2009,07,02,08,19,18.10
2009,07,02,08,20,18.10
2009,07,02,08,21,18.10
2009,07,02,08,22,18.10
2009,07,02,08,23,18.10
2009,07,02,08,24,18.10
2009,07,02,08,25,18.10
2009,07,02,08,26,18.10
2009,07,02,08,27,18.20
2009,07,02,08,28,18.20
2009,07,02,08,29,18.20
2009,07,02,08,30,18.30
2009,07,02,08,31,18.40
2009,07,02,08,32,18.40
2009,07,02,08,33,18.50
2009,07,02,08,34,18.50
2009,07,02,08,35,18.50
2009,07,02,08,36,18.50
2009,07,02,08,37,18.60
2009,07,02,08,38,18.60
2009,07,02,08,39,18.70
2009,07,02,08,40,18.80
2009,07,02,08,41,18.90
2009,07,02,08,42,18.90
2009,07,02,08,43,19.10
2009,07,02,08,44,19.20
2009,07,02,08,45,19.40
2009,07,02,08,46,19.60
2009,07,02,08,47,19.70
2009,07,02,08,48,19.80
2009,07,02,08,49,20.00
2009,07,02,08,50,20.10
2009,07,02,08,51,20.20
2009,07,02,08,52,20.30
2009,07,02,08,53,20.40
2009,07,02,08,54,20.50
2009,07,02,08,55,20.60
2009,07,02,08,56,20.60
2009,07,02,08,57,20.80
2009,07,02,08,58,20.90
2009,07,02,08,59,20.90
2009,07,02,09,00,21.00
2009,07,02,09,01,21.00
2009,07,02,09,02,21.10
2009,07,02,09,03,21.10
2009,07,02,09,04,21.10
2009,07,02,09,05,21.10
2009,07,02,09,06,21.10
2009,07,02,09,07,21.20
2009,07,02,09,08,21.10
2009,07,02,09,09,21.10
2009,07,02,09,10,21.10
2009,07,02,09,11,21.20
2009,07,02,09,12,21.20
2009,07,02,09,13,21.30
2009,07,02,09,14,21.30
2009,07,02,09,15,21.40
2009,07,02,09,16,21.40
2009,07,02,09,17,21.50
2009,07,02,09,18,21.60
2009,07,02,09,19,21.60
2009,07,02,09,20,21.60
2009,07,02,09,21,21.70
2009,07,02,09,22,21.80
2009,07,02,09,23,21.90
2009,07,02,09,24,22.00
2009,07,02,09,25,22.00
2009,07,02,09,26,22.00
2009,07,02,09,27,22.10
2009,07,02,09,28,22.10
2009,07,02,09,29,22.10
2009,07,02,09,30,22.00
2009,07,02,09,31,22.00
2009,07,02,09,32,22.00
2009,07,02,09,33,22.00
2009,07,02,09,34,22.00
2009,07,02,09,35,22.00
2009,07,02,09,36,22.00
2009,07,02,09,37,22.10
2009,07,02,09,38,22.10
2009,07,02,09,39,22.20
2009,07,02,09,40,22.30
2009,07,02,09,41,22.40
2009,07,02,09,42,22.40
2009,07,02,09,43,22.40
2009,07,02,09,44,22.50
2009,07,02,09,45,22.60
2009,07,02,09,46,22.60
2009,07,02,09,47,22.70
2009,07,02,09,48,22.70
2009,07,02,09,49,22.70
2009,07,02,09,50,22.80
2009,07,02,09,51,22.80
2009,07,02,09,52,22.80
2009,07,02,09,53,22.80
2009,07,02,09,54,22.90
2009,07,02,09,55,22.90
2009,07,02,09,56,22.90
2009,07,02,09,57,22.90
2009,07,02,09,58,22.90
2009,07,02,09,59,22.90
2009,07,02,10,00,22.90
2009,07,02,10,01,22.90
2009,07,02,10,02,23.00
2009,07,02,10,03,22.90
2009,07,02,10,04,23.00
2009,07,02,10,05,23.10
2009,07,02,10,06,23.10
2009,07,02,10,07,23.20
2009,07,02,10,08,23.30
2009,07,02,10,09,23.30
2009,07,02,10,10,23.30
2009,07,02,10,11,23.30
2009,07,02,10,12,23.30
2009,07,02,10,13,23.20
2009,07,02,10,14,23.30
2009,07,02,10,15,23.30
2009,07,02,10,16,23.30
2009,07,02,10,17,23.10
2009,07,02,10,18,23.00
2009,07,02,10,19,23.00
2009,07,02,10,20,23.10
2009,07,02,10,21,23.20
2009,07,02,10,22,23.20
2009,07,02,10,23,23.20
2009,07,02,10,24,23.20
2009,07,02,10,25,23.30
2009,07,02,10,26,23.30
2009,07,02,10,27,23.30
2009,07,02,10,28,23.40
2009,07,02,10,29,23.40
2009,07,02,10,30,23.30
2009,07,02,10,31,23.30
2009,07,02,10,32,23.40
2009,07,02,10,33,23.50
2009,07,02,10,34,23.70
2009,07,02,10,35,23.70
2009,07,02,10,36,23.70
2009,07,02,10,37,23.70
2009,07,02,10,38,23.70
2009,07,02,10,39,23.70
2009,07,02,10,40,23.40
2009,07,02,10,41,23.20
2009,07,02,10,42,23.00
2009,07,02,10,43,22.50
2009,07,02,10,44,22.30
2009,07,02,10,45,22.30
2009,07,02,10,46,22.20
2009,07,02,10,47,22.10
2009,07,02,10,48,22.10
2009,07,02,10,49,22.00
2009,07,02,10,50,21.90
2009,07,02,10,51,21.90
2009,07,02,10,52,21.90
2009,07,02,10,53,21.90
2009,07,02,10,54,21.90
2009,07,02,10,55,21.70
2009,07,02,10,56,21.60
2009,07,02,10,57,21.40
2009,07,02,10,58,21.40
2009,07,02,10,59,21.40
2009,07,02,11,00,21.30
2009,07,02,11,01,21.30
2009,07,02,11,02,21.30
2009,07,02,11,03,21.30
2009,07,02,11,04,21.20
2009,07,02,11,05,21.30
2009,07,02,11,06,21.30
2009,07,02,11,07,21.30
2009,07,02,11,08,21.50
2009,07,02,11,09,21.60
2009,07,02,11,10,21.60
2009,07,02,11,11,21.70
2009,07,02,11,12,21.60
2009,07,02,11,13,21.60
2009,07,02,11,14,21.80
2009,07,02,11,15,21.90
2009,07,02,11,16,21.90
2009,07,02,11,17,21.90
2009,07,02,11,18,21.90
2009,07,02,11,19,21.90
2009,07,02,11,20,22.00
2009,07,02,11,21,22.10
2009,07,02,11,22,22.30
2009,07,02,11,23,22.40
2009,07,02,11,24,22.40
2009,07,02,11,25,22.40
2009,07,02,11,26,22.40
2009,07,02,11,27,22.40
2009,07,02,11,28,22.40
2009,07,02,11,29,22.40
2009,07,02,11,30,22.40
2009,07,02,11,31,22.30
2009,07,02,11,32,22.20
2009,07,02,11,33,22.30
2009,07,02,11,34,22.30
2009,07,02,11,35,22.50
2009,07,02,11,36,22.50
2009,07,02,11,37,22.60
2009,07,02,11,38,22.70
2009,07,02,11,39,22.80
2009,07,02,11,40,22.80
2009,07,02,11,41,22.80
2009,07,02,11,42,22.90
2009,07,02,11,43,23.10
2009,07,02,11,44,23.30
2009,07,02,11,45,23.50
2009,07,02,11,46,23.60
2009,07,02,11,47,23.70
2009,07,02,11,48,23.70
2009,07,02,11,49,23.80
2009,07,02,11,50,23.80
2009,07,02,11,51,23.80
2009,07,02,11,52,23.70
2009,07,02,11,53,23.60
2009,07,02,11,54,23.40
2009,07,02,11,55,23.40
2009,07,02,11,56,23.50
2009,07,02,11,57,23.60
2009,07,02,11,58,23.70
2009,07,02,11,59,23.80
2009,07,02,12,00,23.70
2009,07,02,12,01,23.50
2009,07,02,12,02,23.50
2009,07,02,12,03,23.40
2009,07,02,12,04,23.30
2009,07,02,12,05,23.20
2009,07,02,12,06,23.20
2009,07,02,12,07,23.30
2009,07,02,12,08,23.40
2009,07,02,12,09,23.60
2009,07,02,12,10,23.70
2009,07,02,12,11,23.80
2009,07,02,12,12,23.80
2009,07,02,12,13,23.60
2009,07,02,12,14,23.70
2009,07,02,12,15,23.70
2009,07,02,12,16,23.80
2009,07,02,12,17,23.80
2009,07,02,12,18,23.70
2009,07,02,12,19,23.40
2009,07,02,12,20,23.30
2009,07,02,12,21,23.30
2009,07,02,12,22,23.30
2009,07,02,12,23,23.30
2009,07,02,12,24,23.30
2009,07,02,12,25,23.40
2009,07,02,12,26,23.30
2009,07,02,12,27,23.40
2009,07,02,12,28,23.40
2009,07,02,12,29,23.50
2009,07,02,12,30,23.60
2009,07,02,12,31,23.40
2009,07,02,12,32,23.40
2009,07,02,12,33,23.50
2009,07,02,12,34,23.60
2009,07,02,12,35,23.70
2009,07,02,12,36,23.80
2009,07,02,12,37,23.80
2009,07,02,12,38,23.80
2009,07,02,12,39,23.80
2009,07,02,12,40,23.60
2009,07,02,12,41,23.30
2009,07,02,12,42,23.20
2009,07,02,12,43,23.20
2009,07,02,12,44,23.40
2009,07,02,12,45,23.60
2009,07,02,12,46,23.70
2009,07,02,12,47,23.80
2009,07,02,12,48,23.80
2009,07,02,12,49,23.80
2009,07,02,12,50,24.00
2009,07,02,12,51,24.10
2009,07,02,12,52,24.10
2009,07,02,12,53,24.00
2009,07,02,12,54,23.90
2009,07,02,12,55,23.90
2009,07,02,12,56,24.00
2009,07,02,12,57,24.00
2009,07,02,12,58,24.10
2009,07,02,12,59,24.20
2009,07,02,13,00,24.20
2009,07,02,13,01,24.20
2009,07,02,13,02,24.30
2009,07,02,13,03,24.20
2009,07,02,13,04,24.20
2009,07,02,13,05,24.30
2009,07,02,13,06,24.40
2009,07,02,13,07,24.50
2009,07,02,13,08,24.60
2009,07,02,13,09,24.60
2009,07,02,13,10,24.70
2009,07,02,13,11,24.70
2009,07,02,13,12,24.70
2009,07,02,13,13,24.50
2009,07,02,13,14,24.50
2009,07,02,13,15,24.40
2009,07,02,13,16,24.50
2009,07,02,13,17,24.50
2009,07,02,13,18,24.20
2009,07,02,13,19,24.10
2009,07,02,13,20,24.10
2009,07,02,13,21,24.20
2009,07,02,13,22,24.30
2009,07,02,13,23,24.30
2009,07,02,13,24,24.40
2009,07,02,13,25,24.40
2009,07,02,13,26,24.50
2009,07,02,13,27,24.70
2009,07,02,13,28,24.80
2009,07,02,13,29,24.80
2009,07,02,13,30,24.90
2009,07,02,13,31,24.80
2009,07,02,13,32,24.70
2009,07,02,13,33,24.50
2009,07,02,13,34,24.40
2009,07,02,13,35,24.20
2009,07,02,13,36,24.10
2009,07,02,13,37,24.10
2009,07,02,13,38,24.20
2009,07,02,13,39,24.10
2009,07,02,13,40,24.10
2009,07,02,13,41,24.10
2009,07,02,13,42,24.10
2009,07,02,13,43,24.10
2009,07,02,13,44,24.00
2009,07,02,13,45,23.80
2009,07,02,13,46,23.80
2009,07,02,13,47,23.80
2009,07,02,13,48,24.00
2009,07,02,13,49,24.10
2009,07,02,13,50,24.20
2009,07,02,13,51,24.20
2009,07,02,13,52,24.00
2009,07,02,13,53,23.70
2009,07,02,13,54,23.70
2009,07,02,13,55,23.70
2009,07,02,13,56,23.80
2009,07,02,13,57,23.80
2009,07,02,13,58,23.70
2009,07,02,13,59,23.70
2009,07,02,14,00,24.00
2009,07,02,14,01,24.10
2009,07,02,14,02,24.10
2009,07,02,14,03,23.90
2009,07,02,14,04,24.00
2009,07,02,14,05,24.10
2009,07,02,14,06,24.20
2009,07,02,14,07,24.30
2009,07,02,14,08,24.20
2009,07,02,14,09,24.40
2009,07,02,14,10,24.50
2009,07,02,14,11,24.60
2009,07,02,14,12,24.70
2009,07,02,14,13,24.50
2009,07,02,14,14,24.20
2009,07,02,14,15,24.30
2009,07,02,14,16,24.30
2009,07,02,14,17,24.40
2009,07,02,14,18,24.30
2009,07,02,14,19,24.30
2009,07,02,14,20,24.30
2009,07,02,14,21,24.20
2009,07,02,14,22,24.30
2009,07,02,14,23,24.40
2009,07,02,14,24,24.40
2009,07,02,14,25,24.40
2009,07,02,14,26,24.30
2009,07,02,14,27,24.10
2009,07,02,14,28,24.00
2009,07,02,14,29,23.80
2009,07,02,14,30,23.70
2009,07,02,14,31,23.80
2009,07,02,14,32,23.90
2009,07,02,14,33,23.80
2009,07,02,14,34,23.80
2009,07,02,14,35,23.90
2009,07,02,14,36,24.10
2009,07,02,14,37,24.10
2009,07,02,14,38,23.90
2009,07,02,14,39,23.90
2009,07,02,14,40,23.80
2009,07,02,14,41,23.70
2009,07,02,14,42,23.70
2009,07,02,14,43,23.70
2009,07,02,14,44,23.70
2009,07,02,14,45,23.80
2009,07,02,14,46,24.00
2009,07,02,14,47,24.10
2009,07,02,14,48,24.00
2009,07,02,14,49,23.90
2009,07,02,14,50,23.80
2009,07,02,14,51,23.90
2009,07,02,14,52,24.10
2009,07,02,14,53,24.00
2009,07,02,14,54,23.90
2009,07,02,14,55,23.80
2009,07,02,14,56,23.70
2009,07,02,14,57,23.90
2009,07,02,14,58,24.10
2009,07,02,14,59,24.10
2009,07,02,15,00,24.10
2009,07,02,15,01,24.10
2009,07,02,15,02,24.10
2009,07,02,15,03,24.00
2009,07,02,15,04,23.90
2009,07,02,15,05,24.00
2009,07,02,15,06,24.10
2009,07,02,15,07,24.10
2009,07,02,15,08,24.10
2009,07,02,15,09,24.20
2009,07,02,15,10,24.10
2009,07,02,15,11,24.00
2009,07,02,15,12,24.00
2009,07,02,15,13,24.10
2009,07,02,15,14,24.20
2009,07,02,15,15,24.20
2009,07,02,15,16,24.30
2009,07,02,15,17,24.30
2009,07,02,15,18,24.40
2009,07,02,15,19,24.50
2009,07,02,15,20,24.70
2009,07,02,15,21,24.70
2009,07,02,15,22,24.70
2009,07,02,15,23,24.70
2009,07,02,15,24,24.70
2009,07,02,15,25,24.80
2009,07,02,15,26,24.90
2009,07,02,15,27,25.00
2009,07,02,15,28,25.10
2009,07,02,15,29,25.20
2009,07,02,15,30,25.10
2009,07,02,15,31,25.10
2009,07,02,15,32,25.20
2009,07,02,15,33,25.30
2009,07,02,15,34,25.40
2009,07,02,15,35,25.40
2009,07,02,15,36,25.40
2009,07,02,15,37,25.40
2009,07,02,15,38,25.30
2009,07,02,15,39,25.20
2009,07,02,15,40,25.20
2009,07,02,15,41,25.20
2009,07,02,15,42,25.00
2009,07,02,15,43,24.90
2009,07,02,15,44,24.80
2009,07,02,15,45,24.60
2009,07,02,15,46,24.50
2009,07,02,15,47,24.50
2009,07,02,15,48,24.50
2009,07,02,15,49,24.60
2009,07,02,15,50,24.70
2009,07,02,15,51,24.70
2009,07,02,15,52,24.70
2009,07,02,15,53,24.60
2009,07,02,15,54,24.60
2009,07,02,15,55,24.70
2009,07,02,15,56,24.80
2009,07,02,15,57,24.80
2009,07,02,15,58,24.80
2009,07,02,15,59,24.90
2009,07,02,16,00,25.00
2009,07,02,16,01,24.90
2009,07,02,16,02,24.90
2009,07,02,16,03,24.80
2009,07,02,16,04,24.80
2009,07,02,16,05,24.80
2009,07,02,16,06,24.80
2009,07,02,16,07,24.70
2009,07,02,16,08,24.60
2009,07,02,16,09,24.50
2009,07,02,16,10,24.60
2009,07,02,16,11,24.70
2009,07,02,16,12,24.80
2009,07,02,16,13,24.90
2009,07,02,16,14,24.90
2009,07,02,16,15,25.00
2009,07,02,16,16,25.00
2009,07,02,16,17,25.00
2009,07,02,16,18,25.00
2009,07,02,16,19,25.10
2009,07,02,16,20,25.20
2009,07,02,16,21,25.40
2009,07,02,16,22,25.60
2009,07,02,16,23,25.70
2009,07,02,16,24,25.80
2009,07,02,16,25,25.90
2009,07,02,16,26,25.80
2009,07,02,16,27,25.80
2009,07,02,16,28,25.80
2009,07,02,16,29,25.90
2009,07,02,16,30,26.00
2009,07,02,16,31,26.00
2009,07,02,16,32,26.10
2009,07,02,16,33,26.20
2009,07,02,16,34,26.20
2009,07,02,16,35,26.20
2009,07,02,16,36,26.10
2009,07,02,16,37,26.00
2009,07,02,16,38,25.90
2009,07,02,16,39,25.90
2009,07,02,16,40,25.80
2009,07,02,16,41,25.70
2009,07,02,16,42,25.70
2009,07,02,16,43,25.50
2009,07,02,16,44,25.40
2009,07,02,16,45,25.30
2009,07,02,16,46,25.30
2009,07,02,16,47,25.30
2009,07,02,16,48,25.30
2009,07,02,16,49,25.30
2009,07,02,16,50,25.30
2009,07,02,16,51,25.30
2009,07,02,16,52,25.40
2009,07,02,16,53,25.40
2009,07,02,16,54,25.40
2009,07,02,16,55,25.40
2009,07,02,16,56,25.30
2009,07,02,16,57,25.30
2009,07,02,16,58,25.20
2009,07,02,16,59,25.20
2009,07,02,17,00,25.20
2009,07,02,17,01,25.30
2009,07,02,17,02,25.40
2009,07,02,17,03,25.50
2009,07,02,17,04,25.60
2009,07,02,17,05,25.60
2009,07,02,17,06,25.50
2009,07,02,17,07,25.50
2009,07,02,17,08,25.40
2009,07,02,17,09,25.30
2009,07,02,17,10,25.30
2009,07,02,17,11,25.40
2009,07,02,17,12,25.40
2009,07,02,17,13,25.50
2009,07,02,17,14,25.60
2009,07,02,17,15,25.60
2009,07,02,17,16,25.60
2009,07,02,17,17,25.70
2009,07,02,17,18,25.70
2009,07,02,17,19,25.70
2009,07,02,17,20,25.70
2009,07,02,17,21,25.50
2009,07,02,17,22,25.40
2009,07,02,17,23,25.40
2009,07,02,17,24,25.30